Time,TemperatureF,DewpointF,PressureIn,WindDirection,WindDirectionDegrees,WindSpeedMPH,WindSpeedGustMPH,Humidity,HourlyPrecipIn,Conditions,Clouds,dailyrainin,SoftwareType,DateUTC
2013-03-24 00:02:00,35.2,20.0,29.78,West,281,1.0,7.0,55,0.00,,,0.00,weatherlink.com 1.10,2013-03-24 04:02:00,
2013-03-24 00:17:00,35.1,20.0,29.78,WNW,290,3.0,10.0,55,0.00,,,0.00,weatherlink.com 1.10,2013-03-24 04:17:00,
2013-03-24 00:32:00,35.0,21.0,29.78,WNW,285,3.0,8.0,56,0.00,,,0.00,weatherlink.com 1.10,2013-03-24 04:32:00,
2013-03-24 00:47:00,34.7,20.0,29.78,West,275,5.0,7.0,56,0.00,,,0.00,weatherlink.com 1.10,2013-03-24 04:47:00,
2013-03-24 01:02:00,34.7,20.0,29.78,WNW,288,2.0,8.0,55,0.00,,,0.00,weatherlink.com 1.10,2013-03-24 05:02:00,
2013-03-24 01:17:00,34.3,20.0,29.79,West,281,2.0,5.0,56,0.00,,,0.00,weatherlink.com 1.10,2013-03-24 05:17:00,
2013-03-24 01:32:00,34.2,20.0,29.78,WNW,285,3.0,8.0,56,0.00,,,0.00,weatherlink.com 1.10,2013-03-24 05:32:00,
2013-03-24 01:47:00,34.2,20.0,29.80,West,259,4.0,7.0,57,0.00,,,0.00,weatherlink.com 1.10,2013-03-24 05:47:00,
2013-03-24 02:02:00,34.1,21.0,29.79,WNW,283,1.0,8.0,58,0.00,,,0.00,weatherlink.com 1.10,2013-03-24 06:02:00,
2013-03-24 02:17:00,33.9,20.0,29.80,West,271,4.0,9.0,58,0.00,,,0.00,weatherlink.com 1.10,2013-03-24 06:17:00,
2013-03-24 02:33:00,33.6,20.0,29.79,WNW,290,2.0,6.0,59,0.00,,,0.00,weatherlink.com 1.10,2013-03-24 06:33:00,
2013-03-24 02:48:00,33.5,21.0,29.79,West,276,3.0,11.0,60,0.00,,,0.00,weatherlink.com 1.10,2013-03-24 06:48:00,
2013-03-24 03:03:00,33.2,21.0,29.79,West,269,1.0,6.0,62,0.00,,,0.00,weatherlink.com 1.10,2013-03-24 07:03:00,
2013-03-24 03:18:00,33.2,21.0,29.78,WSW,243,1.0,6.0,62,0.00,,,0.00,weatherlink.com 1.10,2013-03-24 07:18:00,
2013-03-24 03:33:00,33.1,22.0,29.78,WNW,283,2.0,5.0,63,0.00,,,0.00,weatherlink.com 1.10,2013-03-24 07:33:00,
2013-03-24 03:48:00,33.0,22.0,29.78,West,266,7.0,7.0,64,0.00,,,0.00,weatherlink.com 1.10,2013-03-24 07:48:00,
2013-03-24 04:18:00,32.6,22.0,29.77,West,264,1.0,5.0,66,0.00,,,0.00,weatherlink.com 1.10,2013-03-24 08:18:00,
2013-03-24 04:33:00,32.3,22.0,29.77,West,280,1.0,4.0,67,0.00,,,0.00,weatherlink.com 1.10,2013-03-24 08:33:00,
2013-03-24 04:48:00,32.1,23.0,29.77,WNW,283,2.0,4.0,68,0.00,,,0.00,weatherlink.com 1.10,2013-03-24 08:48:00,
2013-03-24 05:03:00,32.0,22.0,29.78,WNW,285,2.0,7.0,68,0.00,,,0.00,weatherlink.com 1.10,2013-03-24 09:03:00,
2013-03-24 05:18:00,32.0,22.0,29.77,West,281,1.0,5.0,68,0.00,,,0.00,weatherlink.com 1.10,2013-03-24 09:18:00,
2013-03-24 05:33:00,31.9,22.0,29.78,West,262,1.0,6.0,68,0.00,,,0.00,weatherlink.com 1.10,2013-03-24 09:33:00,
2013-03-24 05:48:00,31.9,23.0,29.78,West,277,1.0,5.0,69,0.00,,,0.00,weatherlink.com 1.10,2013-03-24 09:48:00,
2013-03-24 06:03:00,31.8,23.0,29.79,WNW,287,2.0,5.0,69,0.00,,,0.00,weatherlink.com 1.10,2013-03-24 10:03:00,
2013-03-24 06:18:00,31.6,22.0,29.80,West,269,2.0,4.0,69,0.00,,,0.00,weatherlink.com 1.10,2013-03-24 10:18:00,
2013-03-24 06:33:00,31.7,23.0,29.80,West,280,3.0,5.0,69,0.00,,,0.00,weatherlink.com 1.10,2013-03-24 10:33:00,
2013-03-24 06:48:00,31.9,23.0,29.81,WNW,285,1.0,7.0,69,0.00,,,0.00,weatherlink.com 1.10,2013-03-24 10:48:00,
2013-03-24 07:03:00,32.2,23.0,29.82,West,263,3.0,6.0,69,0.00,,,0.00,weatherlink.com 1.10,2013-03-24 11:03:00,
2013-03-24 07:18:00,32.7,23.0,29.82,WNW,283,4.0,6.0,68,0.00,,,0.00,weatherlink.com 1.10,2013-03-24 11:18:00,
2013-03-24 07:33:00,33.5,24.0,29.81,West,270,3.0,6.0,67,0.00,,,0.00,weatherlink.com 1.10,2013-03-24 11:33:00,
2013-03-24 07:50:00,34.6,24.0,29.81,West,270,1.0,7.0,66,0.00,,,0.00,weatherlink.com 1.10,2013-03-24 11:50:00,
2013-03-24 08:03:00,35.4,24.0,29.81,West,276,3.0,7.0,63,0.00,,,0.00,weatherlink.com 1.10,2013-03-24 12:03:00,
2013-03-24 08:18:00,36.0,24.0,29.80,WNW,288,4.0,7.0,61,0.00,,,0.00,weatherlink.com 1.10,2013-03-24 12:18:00,
2013-03-24 08:33:00,36.6,24.0,29.80,WNW,286,2.0,8.0,61,0.00,,,0.00,weatherlink.com 1.10,2013-03-24 12:33:00,
2013-03-24 08:48:00,37.7,24.0,29.81,West,278,3.0,5.0,57,0.00,,,0.00,weatherlink.com 1.10,2013-03-24 12:48:00,
2013-03-24 09:04:00,38.5,24.0,29.81,NW,309,2.0,6.0,56,0.00,,,0.00,weatherlink.com 1.10,2013-03-24 13:04:00,
2013-03-24 09:19:00,39.3,24.0,29.83,WNW,290,4.0,8.0,54,0.00,,,0.00,weatherlink.com 1.10,2013-03-24 13:19:00,
2013-03-24 09:34:00,39.9,23.0,29.82,WNW,285,2.0,8.0,52,0.00,,,0.00,weatherlink.com 1.10,2013-03-24 13:34:00,
2013-03-24 09:49:00,40.6,24.0,29.82,NW,304,4.0,8.0,51,0.00,,,0.00,weatherlink.com 1.10,2013-03-24 13:49:00,
2013-03-24 10:04:00,41.1,24.0,29.82,West,270,4.0,8.0,50,0.00,,,0.00,weatherlink.com 1.10,2013-03-24 14:04:00,
2013-03-24 10:19:00,41.5,23.0,29.82,WSW,249,5.0,8.0,49,0.00,,,0.00,weatherlink.com 1.10,2013-03-24 14:19:00,
2013-03-24 10:33:00,42.3,23.0,29.81,West,281,2.0,10.0,47,0.00,,,0.00,weatherlink.com 1.10,2013-03-24 14:33:00,
2013-03-24 10:49:00,42.7,23.0,29.81,West,281,3.0,8.0,46,0.00,,,0.00,weatherlink.com 1.10,2013-03-24 14:49:00,
2013-03-24 11:04:00,43.3,24.0,29.80,West,266,1.0,6.0,46,0.00,,,0.00,weatherlink.com 1.10,2013-03-24 15:04:00,
2013-03-24 11:19:00,44.0,24.0,29.80,SE,133,1.0,5.0,45,0.00,,,0.00,weatherlink.com 1.10,2013-03-24 15:19:00,
2013-03-24 11:34:00,44.3,24.0,29.79,East,84,1.0,8.0,45,0.00,,,0.00,weatherlink.com 1.10,2013-03-24 15:34:00,
2013-03-24 11:49:00,45.0,25.0,29.79,WNW,293,0.0,5.0,45,0.00,,,0.00,weatherlink.com 1.10,2013-03-24 15:49:00,
2013-03-24 12:04:00,45.9,24.0,29.79,ESE,112,5.0,8.0,43,0.00,,,0.00,weatherlink.com 1.10,2013-03-24 16:04:00,
2013-03-24 12:19:00,46.1,22.0,29.79,East,82,3.0,6.0,39,0.00,,,0.00,weatherlink.com 1.10,2013-03-24 16:19:00,
2013-03-24 12:34:00,46.0,24.0,29.78,WSW,249,5.0,6.0,42,0.00,,,0.00,weatherlink.com 1.10,2013-03-24 16:34:00,
2013-03-24 12:49:00,47.2,24.0,29.77,West,281,1.0,6.0,40,0.00,,,0.00,weatherlink.com 1.10,2013-03-24 16:49:00,
2013-03-24 13:04:00,47.5,24.0,29.76,ENE,72,3.0,5.0,40,0.00,,,0.00,weatherlink.com 1.10,2013-03-24 17:04:00,
2013-03-24 13:19:00,47.4,23.0,29.76,East,82,4.0,7.0,39,0.00,,,0.00,weatherlink.com 1.10,2013-03-24 17:19:00,
2013-03-24 13:34:00,47.1,23.0,29.76,NE,53,1.0,6.0,39,0.00,,,0.00,weatherlink.com 1.10,2013-03-24 17:34:00,
2013-03-24 13:49:00,47.1,24.0,29.76,West,280,2.0,9.0,40,0.00,,,0.00,weatherlink.com 1.10,2013-03-24 17:49:00,
2013-03-24 14:04:00,46.9,23.0,29.75,NE,42,4.0,6.0,39,0.00,,,0.00,weatherlink.com 1.10,2013-03-24 18:04:00,
2013-03-24 14:19:00,47.6,24.0,29.75,ENE,58,3.0,7.0,39,0.00,,,0.00,weatherlink.com 1.10,2013-03-24 18:19:00,
2013-03-24 14:34:00,48.0,23.0,29.75,NE,56,1.0,6.0,38,0.00,,,0.00,weatherlink.com 1.10,2013-03-24 18:34:00,
2013-03-24 14:49:00,49.2,25.0,29.74,West,271,1.0,3.0,39,0.00,,,0.00,weatherlink.com 1.10,2013-03-24 18:49:00,
2013-03-24 15:03:00,50.8,28.0,29.74,SSE,151,1.0,3.0,42,0.00,,,0.00,weatherlink.com 1.10,2013-03-24 19:03:00,
2013-03-24 15:19:00,48.8,27.0,29.73,NE,55,0.0,6.0,43,0.00,,,0.00,weatherlink.com 1.10,2013-03-24 19:19:00,
2013-03-24 15:34:00,48.6,26.0,29.72,NW,316,0.0,6.0,42,0.00,,,0.00,weatherlink.com 1.10,2013-03-24 19:34:00,
2013-03-24 15:49:00,47.9,27.0,29.72,NNE,13,1.0,9.0,45,0.00,,,0.00,weatherlink.com 1.10,2013-03-24 19:49:00,
2013-03-24 16:04:00,46.8,27.0,29.72,ESE,103,4.0,7.0,47,0.00,,,0.00,weatherlink.com 1.10,2013-03-24 20:04:00,
2013-03-24 16:19:00,46.0,28.0,29.73,ENE,61,1.0,5.0,49,0.00,,,0.00,weatherlink.com 1.10,2013-03-24 20:19:00,
2013-03-24 16:34:00,45.0,28.0,29.73,East,101,1.0,8.0,51,0.00,,,0.00,weatherlink.com 1.10,2013-03-24 20:34:00,
2013-03-24 16:49:00,44.2,28.0,29.73,WNW,285,0.0,6.0,54,0.00,,,0.00,weatherlink.com 1.10,2013-03-24 20:49:00,
2013-03-24 17:04:00,42.6,29.0,29.73,ESE,114,3.0,8.0,58,0.00,,,0.00,weatherlink.com 1.10,2013-03-24 21:04:00,
2013-03-24 17:19:00,42.0,29.0,29.73,ENE,58,2.0,8.0,60,0.00,,,0.00,weatherlink.com 1.10,2013-03-24 21:19:00,
2013-03-24 17:34:00,42.8,30.0,29.73,ESE,110,1.0,4.0,60,0.00,,,0.00,weatherlink.com 1.10,2013-03-24 21:34:00,
2013-03-24 17:49:00,42.7,30.0,29.73,East,86,1.0,3.0,60,0.00,,,0.00,weatherlink.com 1.10,2013-03-24 21:49:00,
2013-03-24 18:04:00,42.6,29.0,29.74,West,267,0.0,3.0,60,0.00,,,0.00,weatherlink.com 1.10,2013-03-24 22:04:00,
2013-03-24 18:19:00,41.4,27.0,29.74,ESE,108,2.0,6.0,58,0.00,,,0.00,weatherlink.com 1.10,2013-03-24 22:19:00,
2013-03-24 18:34:00,40.6,27.0,29.74,ESE,114,1.0,8.0,59,0.00,,,0.00,weatherlink.com 1.10,2013-03-24 22:34:00,
2013-03-24 18:49:00,39.8,27.0,29.74,ESE,120,3.0,7.0,61,0.00,,,0.00,weatherlink.com 1.10,2013-03-24 22:49:00,
2013-03-24 19:04:00,39.3,28.0,29.74,SE,141,2.0,4.0,63,0.00,,,0.00,weatherlink.com 1.10,2013-03-24 23:04:00,
2013-03-24 19:19:00,38.9,28.0,29.74,ESE,110,1.0,3.0,64,0.00,,,0.00,weatherlink.com 1.10,2013-03-24 23:19:00,
2013-03-24 19:34:00,38.4,28.0,29.74,ESE,113,0.0,3.0,66,0.00,,,0.00,weatherlink.com 1.10,2013-03-24 23:34:00,
2013-03-24 19:49:00,38.1,29.0,29.74,ENE,72,0.0,1.0,70,0.00,,,0.00,weatherlink.com 1.10,2013-03-24 23:49:00,
2013-03-24 20:04:00,37.7,29.0,29.74,ESE,106,0.0,0.0,72,0.00,,,0.00,weatherlink.com 1.10,2013-03-25 00:04:00,
2013-03-24 20:19:00,37.5,30.0,29.74,ESE,110,0.0,3.0,73,0.00,,,0.00,weatherlink.com 1.10,2013-03-25 00:19:00,
2013-03-24 20:34:00,37.3,30.0,29.76,ESE,103,1.0,3.0,75,0.00,,,0.00,weatherlink.com 1.10,2013-03-25 00:34:00,
2013-03-24 20:49:00,37.3,31.0,29.78,WNW,295,0.0,1.0,77,0.00,,,0.00,weatherlink.com 1.10,2013-03-25 00:49:00,
2013-03-24 21:04:00,37.2,31.0,29.79,ESE,104,0.0,1.0,77,0.00,,,0.00,weatherlink.com 1.10,2013-03-25 01:04:00,
2013-03-24 21:19:00,37.3,30.0,29.78,ENE,76,0.0,1.0,76,0.00,,,0.00,weatherlink.com 1.10,2013-03-25 01:19:00,
2013-03-24 21:34:00,37.2,30.0,29.79,ESE,110,0.0,0.0,75,0.00,,,0.00,weatherlink.com 1.10,2013-03-25 01:34:00,
2013-03-24 21:49:00,37.1,30.0,29.79,SE,126,0.0,1.0,75,0.00,,,0.00,weatherlink.com 1.10,2013-03-25 01:49:00,
2013-03-24 22:04:00,37.0,30.0,29.79,NW,312,0.0,1.0,75,0.00,,,0.00,weatherlink.com 1.10,2013-03-25 02:04:00,
2013-03-24 22:19:00,36.9,30.0,29.79,East,99,0.0,1.0,76,0.00,,,0.00,weatherlink.com 1.10,2013-03-25 02:19:00,
2013-03-24 22:34:00,36.7,30.0,29.78,West,266,0.0,0.0,77,0.00,,,0.00,weatherlink.com 1.10,2013-03-25 02:34:00,
2013-03-24 22:49:00,36.3,30.0,29.77,West,269,0.0,0.0,77,0.00,,,0.00,weatherlink.com 1.10,2013-03-25 02:49:00,
2013-03-24 23:04:00,35.5,29.0,29.77,West,274,0.0,0.0,78,0.00,,,0.00,weatherlink.com 1.10,2013-03-25 03:04:00,
2013-03-24 23:19:00,34.9,29.0,29.76,West,274,0.0,0.0,80,0.00,,,0.00,weatherlink.com 1.10,2013-03-25 03:19:00,
2013-03-24 23:34:00,34.3,29.0,29.76,West,273,0.0,0.0,81,0.00,,,0.00,weatherlink.com 1.10,2013-03-25 03:34:00,
2013-03-24 23:49:00,34.0,29.0,29.76,West,273,0.0,0.0,82,0.00,,,0.00,weatherlink.com 1.10,2013-03-25 03:49:00,